Weather in Chudinovo

Russia / Chelyabinsk Oblast     54°37′07″N   62°31′10″E
temp.,
°C
wind,
m/s
gust,
m/s
humid.,
%
clouds,
%
prec.,
mm/h
press.,
hPa
HPBL,
m
18 january, mon
mon1823:00−18wsw488415 0.0 1012124
02:00−19w47850 0.0 1014109
05:00−20w47860 0.0 1016120
08:00−22wnw44890 0.0 101764
11:00−21wnw34900 0.0 102069
14:00−19wnw24900 0.0 1021128
17:00−22wnw22900 0.0 102220
20:00−23wsw22870 0.0 102220
19 january, tue
tue1923:00−23wsw228617 0.0 102320
02:00−22ssw118693 0.0 102320
05:00−22s118695 0.0 102220
08:00−20se1287100 0.0 102220
11:00−19se2386100 0.0 1022105
14:00−17ese3485100 0.0 1021229
17:00−17e3590100 0.0 1020229
20:00−17e3790100 0.0 1019247
20 january, wed
wed2023:00−17e4990100 0.0 1018270
02:00−16e4792100 0.0 1016291
05:00−16e5894100 1.0 1014302
08:00−15ese2597100 1.1 1013323
11:00−14nne1195100 2.9 1012107
14:00−15w359599 0.2 1012252
17:00−19wsw449660 0.2 101260
20:00−20sw34950 0.0 101443
21 january, thu
thu2123:00−19sw369346 0.0 1014111
02:00−19wsw499289 0.1 1014234
05:00−18wsw499691 0.1 1014295
08:00−19wsw3697100 0.2 1014154
11:00−18w51090100 0.2 1014561
14:00−17w5108777 0.0 1014558
17:00−20wsw479062 0.0 101489
20:00−21w34900 0.0 101550
22 january, fri
fri2223:00−21wsw34883 0.0 101550
02:00−20wsw348877 0.0 101557
05:00−18wsw368888 0.0 101497
08:00−18sw3692100 0.0 1013131
11:00−15ssw61095100 0.2 1010330
14:00−12sw71294100 1.5 1007800
17:00−13wnw101589100 2.6 1007698
20:00−16nw6128999 0.1 1009444